| time (UTC) | temp F | wind direction | speed MPH | gust MPH | rain 1hr in | rain 24hr in | rain mn in | humidity % | barometer mb |
| 20260504130539 | 54 | 324 | 12.0 | 13.0 | 0.00 | 0.00 | 0.00 | 60 | 1001.1 |
| 20260504110427 | 57 | 298 | 5.0 | 6.0 | 0.00 | 0.00 | 0.00 | 52 | 998.6 |
| 20260504100343 | 59 | 263 | 4.0 | 5.0 | 0.00 | 0.00 | 0.00 | 44 | 997.6 |
| 20260504081737 | 61 | 239 | 2.0 | 2.0 | 0.00 | 0.00 | 0.00 | 37 | 999.0 |
| 20260504081233 | 61 | 278 | 2.0 | 3.0 | 0.00 | 0.00 | 0.00 | 37 | 999.0 |
| 20260504080730 | 61 | 244 | 2.0 | 2.0 | 0.00 | 0.00 | 0.00 | 37 | 999.0 |
| 20260504080226 | 61 | 264 | 3.0 | 3.0 | 0.00 | 0.00 | 0.00 | 37 | 999.3 |
| 20260504070154 | 59 | 217 | 3.0 | 3.0 | 0.00 | 0.00 | 0.00 | 39 | 1000.1 |
| 20260504060114 | 56 | 238 | 3.0 | 3.0 | 0.00 | 0.00 | 0.00 | 43 | 1001.8 |
| 20260504050542 | 57 | 222 | 2.0 | 2.0 | 0.00 | 0.00 | 0.00 | 40 | 1002.9 |
| 20260504045536 | 57 | 184 | 2.0 | 3.0 | 0.00 | 0.00 | 0.00 | 40 | 1002.9 |
| 20260504045032 | 57 | 281 | 1.0 | 1.0 | 0.00 | 0.00 | 0.00 | 39 | 1002.9 |
| 20260504044529 | 56 | 243 | 3.0 | 5.0 | 0.00 | 0.00 | 0.00 | 39 | 1003.2 |
| 20260504044026 | 56 | 265 | 1.0 | 1.0 | 0.00 | 0.00 | 0.00 | 40 | 1002.9 |
| 20260504043523 | 57 | 300 | 0.0 | 0.0 | 0.00 | 0.00 | 0.00 | 39 | 1003.2 |
| 20260504043020 | 57 | 285 | 1.0 | 2.0 | 0.00 | 0.00 | 0.00 | 39 | 1002.9 |
| 20260504042517 | 57 | 291 | 1.0 | 2.0 | 0.00 | 0.00 | 0.00 | 39 | 1003.6 |
| 20260504042014 | 57 | 270 | 2.0 | 2.0 | 0.00 | 0.00 | 0.00 | 39 | 1003.6 |
| 20260504041510 | 57 | 276 | 1.0 | 1.0 | 0.00 | 0.00 | 0.00 | 38 | 1003.6 |
| 20260504041006 | 58 | 264 | 2.0 | 2.0 | 0.00 | 0.00 | 0.00 | 37 | 1003.6 |
| 20260504040504 | 58 | 277 | 2.0 | 2.0 | 0.00 | 0.00 | 0.00 | 36 | 1003.6 |
| 20260504040000 | 59 | 246 | 2.0 | 2.0 | 0.00 | 0.00 | 0.00 | 36 | 1003.6 |
| 20260504035457 | 59 | 314 | 0.0 | 0.0 | 0.00 | 0.00 | 0.00 | 36 | 1003.6 |
| 20260504034953 | 59 | 203 | 1.0 | 2.0 | 0.00 | 0.00 | 0.00 | 36 | 1003.6 |
| 20260504034451 | 58 | 288 | 1.0 | 1.0 | 0.00 | 0.00 | 0.00 | 36 | 1003.9 |
| 20260504033948 | 59 | 304 | 0.0 | 0.0 | 0.00 | 0.00 | 0.00 | 36 | 1003.9 |
| 20260504033446 | 59 | 305 | 1.0 | 2.0 | 0.00 | 0.00 | 0.00 | 35 | 1004.2 |
| 20260504032943 | 59 | 296 | 1.0 | 2.0 | 0.00 | 0.00 | 0.00 | 34 | 1004.2 |
| 20260504032440 | 59 | 300 | 0.0 | 1.0 | 0.00 | 0.00 | 0.00 | 35 | 1004.6 |
| 20260504031937 | 60 | 287 | 1.0 | 1.0 | 0.00 | 0.00 | 0.00 | 34 | 1004.2 |
| 20260504031433 | 59 | 311 | 1.0 | 2.0 | 0.00 | 0.00 | 0.00 | 34 | 1004.2 |
| 20260504030930 | 59 | 322 | 0.0 | 0.0 | 0.00 | 0.00 | 0.00 | 34 | 1004.6 |
| 20260504030427 | 60 | 316 | 1.0 | 1.0 | 0.00 | 0.00 | 0.00 | 34 | 1004.6 |
| 20260504025923 | 60 | 319 | 0.0 | 0.0 | 0.00 | 0.00 | 0.00 | 34 | 1004.2 |
| 20260504025420 | 60 | 320 | 0.0 | 0.0 | 0.00 | 0.00 | 0.00 | 33 | 1004.6 |
| 20260504024917 | 61 | 316 | 0.0 | 1.0 | 0.00 | 0.00 | 0.00 | 33 | 1004.9 |
| 20260504024414 | 61 | 313 | 0.0 | 1.0 | 0.00 | 0.00 | 0.00 | 33 | 1004.6 |
| 20260504023911 | 61 | 308 | 1.0 | 1.0 | 0.00 | 0.00 | 0.00 | 33 | 1004.9 |
| 20260504023408 | 61 | 317 | 0.0 | 0.0 | 0.00 | 0.00 | 0.00 | 34 | 1004.9 |
| 20260504022903 | 61 | 315 | 0.0 | 0.0 | 0.00 | 0.00 | 0.00 | 34 | 1004.9 |
| 20260504022400 | 60 | 315 | 0.0 | 0.0 | 0.00 | 0.00 | 0.00 | 36 | 1004.6 |
| 20260504021856 | 60 | 321 | 0.0 | 0.0 | 0.00 | 0.00 | 0.00 | 36 | 1004.9 |
| 20260504021354 | 61 | 320 | 0.0 | 0.0 | 0.00 | 0.00 | 0.00 | 36 | 1004.6 |
| 20260504020851 | 61 | 313 | 1.0 | 1.0 | 0.00 | 0.00 | 0.00 | 36 | 1004.9 |
| 20260504020347 | 62 | 321 | 0.0 | 0.0 | 0.00 | 0.00 | 0.00 | 37 | 1005.2 |
| 20260504015843 | 62 | 307 | 0.0 | 1.0 | 0.00 | 0.00 | 0.00 | 36 | 1004.9 |
| 20260504015340 | 63 | 321 | 0.0 | 0.0 | 0.00 | 0.00 | 0.00 | 36 | 1004.6 |
| 20260504014836 | 63 | 320 | 0.0 | 0.0 | 0.00 | 0.00 | 0.00 | 35 | 1004.9 |
| 20260504014332 | 64 | 308 | 1.0 | 1.0 | 0.00 | 0.00 | 0.00 | 34 | 1004.9 |
| 20260504013830 | 64 | 314 | 0.0 | 0.0 | 0.00 | 0.00 | 0.00 | 34 | 1004.9 |
| 20260504013328 | 65 | 322 | 0.0 | 0.0 | 0.00 | 0.00 | 0.00 | 34 | 1005.2 |
| 20260504012824 | 66 | 320 | 0.0 | 0.0 | 0.00 | 0.00 | 0.00 | 33 | 1005.2 |
| 20260504012322 | 66 | 302 | 1.0 | 1.0 | 0.00 | 0.00 | 0.00 | 31 | 1004.9 |
| 20260504011819 | 67 | 304 | 1.0 | 1.0 | 0.00 | 0.00 | 0.00 | 30 | 1005.2 |
| 20260504011316 | 67 | 312 | 2.0 | 3.0 | 0.00 | 0.00 | 0.00 | 30 | 1004.9 |
| 20260504010811 | 68 | 341 | 1.0 | 2.0 | 0.00 | 0.00 | 0.00 | 29 | 1005.2 |
| 20260504010307 | 68 | 303 | 3.0 | 5.0 | 0.00 | 0.00 | 0.00 | 28 | 1004.9 |
| 20260504005804 | 68 | 317 | 1.0 | 2.0 | 0.00 | 0.00 | 0.00 | 29 | 1004.9 |
| 20260504005301 | 69 | 307 | 3.0 | 5.0 | 0.00 | 0.00 | 0.00 | 28 | 1004.9 |
| 20260504004759 | 69 | 319 | 3.0 | 3.0 | 0.00 | 0.00 | 0.00 | 27 | 1005.2 |
| 20260504004256 | 70 | 300 | 3.0 | 5.0 | 0.00 | 0.00 | 0.00 | 27 | 1005.2 |
| 20260504003752 | 70 | 313 | 1.0 | 2.0 | 0.00 | 0.00 | 0.00 | 27 | 1005.2 |
| 20260504003249 | 71 | 288 | 5.0 | 6.0 | 0.00 | 0.00 | 0.00 | 27 | 1005.2 |
| 20260504002746 | 71 | 303 | 1.0 | 1.0 | 0.00 | 0.00 | 0.00 | 26 | 1005.2 |
| 20260504002242 | 71 | 304 | 2.0 | 2.0 | 0.00 | 0.00 | 0.00 | 26 | 1005.6 |
| 20260504001741 | 71 | 285 | 2.0 | 2.0 | 0.00 | 0.00 | 0.00 | 27 | 1004.9 |
| 20260504001237 | 72 | 318 | 3.0 | 5.0 | 0.00 | 0.00 | 0.00 | 27 | 1005.6 |
| 20260504000734 | 72 | 318 | 1.0 | 2.0 | 0.00 | 0.00 | 0.00 | 27 | 1005.2 |
| 20260504000231 | 72 | 299 | 2.0 | 2.0 | 0.00 | 0.00 | 0.00 | 27 | 1005.6 |
| 20260503235729 | 72 | 325 | 3.0 | 3.0 | 0.00 | 0.00 | 0.00 | 27 | 1005.6 |
| 20260503235226 | 72 | 303 | 2.0 | 3.0 | 0.00 | 0.00 | 0.00 | 26 | 1005.6 |
| 20260503234724 | 72 | 286 | 3.0 | 3.0 | 0.00 | 0.00 | 0.00 | 26 | 1005.6 |
| 20260503234222 | 72 | 291 | 2.0 | 2.0 | 0.00 | 0.00 | 0.00 | 27 | 1005.6 |
| 20260503233718 | 72 | 323 | 5.0 | 7.0 | 0.00 | 0.00 | 0.00 | 25 | 1006.0 |
| 20260503233214 | 71 | 283 | 2.0 | 2.0 | 0.00 | 0.00 | 0.00 | 26 | 1005.6 |
| 20260503232711 | 71 | 297 | 9.0 | 10.0 | 0.00 | 0.00 | 0.00 | 26 | 1006.0 |
| 20260503232208 | 71 | 330 | 11.0 | 13.0 | 0.00 | 0.00 | 0.00 | 25 | 1006.0 |
| 20260503231707 | 72 | 289 | 3.0 | 6.0 | 0.00 | 0.00 | 0.00 | 28 | 1006.0 |
| 20260503231203 | 72 | 293 | 10.0 | 11.0 | 0.00 | 0.00 | 0.00 | 25 | 1006.4 |
| 20260503230659 | 72 | 314 | 9.0 | 11.0 | 0.00 | 0.00 | 0.00 | 25 | 1006.4 |
| 20260503230156 | 72 | 271 | 4.0 | 6.0 | 0.00 | 0.00 | 0.00 | 26 | 1006.0 |
| 20260503225654 | 72 | 309 | 4.0 | 6.0 | 0.00 | 0.00 | 0.00 | 28 | 1006.4 |
| 20260503225154 | 72 | 313 | 6.0 | 8.0 | 0.00 | 0.00 | 0.00 | 28 | 1006.4 |
| 20260503224651 | 72 | 294 | 4.0 | 5.0 | 0.00 | 0.00 | 0.00 | 28 | 1006.4 |
| 20260503224149 | 71 | 310 | 6.0 | 9.0 | 0.00 | 0.00 | 0.00 | 29 | 1006.4 |
| 20260503223647 | 71 | 320 | 10.0 | 11.0 | 0.00 | 0.00 | 0.00 | 30 | 1006.4 |
| 20260503223143 | 72 | 310 | 11.0 | 15.0 | 0.00 | 0.00 | 0.00 | 30 | 1006.4 |
| 20260503222640 | 71 | 314 | 13.0 | 15.0 | 0.00 | 0.00 | 0.00 | 29 | 1006.4 |
| 20260503222138 | 71 | 320 | 7.0 | 8.0 | 0.00 | 0.00 | 0.00 | 28 | 1006.7 |
| 20260503221636 | 72 | 329 | 11.0 | 13.0 | 0.00 | 0.00 | 0.00 | 28 | 1006.4 |
| 20260503221133 | 71 | 312 | 3.0 | 5.0 | 0.00 | 0.00 | 0.00 | 29 | 1006.4 |
| 20260503220630 | 71 | 299 | 11.0 | 11.0 | 0.00 | 0.00 | 0.00 | 27 | 1006.4 |
| 20260503220127 | 71 | 320 | 4.0 | 6.0 | 0.00 | 0.00 | 0.00 | 29 | 1006.4 |
| 20260503215624 | 71 | 319 | 11.0 | 13.0 | 0.00 | 0.00 | 0.00 | 28 | 1006.4 |
| 20260503215120 | 71 | 320 | 15.0 | 17.0 | 0.00 | 0.00 | 0.00 | 29 | 1006.4 |
| 20260503214619 | 71 | 314 | 11.0 | 13.0 | 0.00 | 0.00 | 0.00 | 28 | 1006.7 |
| 20260503214115 | 71 | 313 | 6.0 | 7.0 | 0.00 | 0.00 | 0.00 | 29 | 1006.7 |
| 20260503213614 | 71 | 321 | 9.0 | 10.0 | 0.00 | 0.00 | 0.00 | 29 | 1006.7 |
| 20260503213110 | 72 | 318 | 11.0 | 13.0 | 0.00 | 0.00 | 0.00 | 28 | 1007.0 |
| 20260503212608 | 71 | 314 | 4.0 | 6.0 | 0.00 | 0.00 | 0.00 | 28 | 1007.0 |
| 20260503212105 | 70 | 301 | 3.0 | 6.0 | 0.00 | 0.00 | 0.00 | 32 | 1007.0 |
| 20260503211602 | 71 | 320 | 10.0 | 13.0 | 0.00 | 0.00 | 0.00 | 35 | 1007.0 |
| 20260503211057 | 70 | 314 | 11.0 | 17.0 | 0.00 | 0.00 | 0.00 | 35 | 1007.0 |
| 20260503210554 | 70 | 308 | 14.0 | 16.0 | 0.00 | 0.00 | 0.00 | 34 | 1007.4 |
| 20260503210050 | 70 | 333 | 8.0 | 10.0 | 0.00 | 0.00 | 0.00 | 34 | 1007.4 |
| 20260503205547 | 70 | 301 | 11.0 | 13.0 | 0.00 | 0.00 | 0.00 | 34 | 1007.7 |
| 20260503205043 | 71 | 308 | 3.0 | 5.0 | 0.00 | 0.00 | 0.00 | 34 | 1007.4 |
| 20260503204540 | 69 | 322 | 11.0 | 14.0 | 0.00 | 0.00 | 0.00 | 35 | 1007.7 |
| 20260503204038 | 70 | 326 | 12.0 | 16.0 | 0.00 | 0.00 | 0.00 | 32 | 1007.7 |
| 20260503203535 | 70 | 333 | 6.0 | 7.0 | 0.00 | 0.00 | 0.00 | 35 | 1007.7 |
| 20260503203032 | 70 | 292 | 5.0 | 9.0 | 0.00 | 0.00 | 0.00 | 36 | 1007.7 |
| 20260503202530 | 69 | 323 | 8.0 | 9.0 | 0.00 | 0.00 | 0.00 | 33 | 1007.7 |
| 20260503202027 | 69 | 338 | 17.0 | 20.0 | 0.00 | 0.00 | 0.00 | 32 | 1007.7 |
| 20260503201525 | 69 | 307 | 8.0 | 9.0 | 0.00 | 0.00 | 0.00 | 36 | 1008.1 |
| 20260503201022 | 68 | 339 | 9.0 | 14.0 | 0.00 | 0.00 | 0.00 | 33 | 1008.1 |
| 20260503200518 | 69 | 304 | 9.0 | 10.0 | 0.00 | 0.00 | 0.00 | 32 | 1008.1 |
| 20260503200015 | 68 | 331 | 14.0 | 16.0 | 0.00 | 0.00 | 0.00 | 34 | 1008.4 |
| 20260503195513 | 69 | 313 | 17.0 | 20.0 | 0.00 | 0.00 | 0.00 | 33 | 1008.1 |
| 20260503195009 | 68 | 303 | 8.0 | 9.0 | 0.00 | 0.00 | 0.00 | 35 | 1008.4 |
| 20260503194507 | 68 | 313 | 7.0 | 8.0 | 0.00 | 0.00 | 0.00 | 35 | 1008.4 |
| 20260503194006 | 68 | 335 | 12.0 | 13.0 | 0.00 | 0.00 | 0.00 | 34 | 1008.4 |
| 20260503193503 | 69 | 312 | 12.0 | 15.0 | 0.00 | 0.00 | 0.00 | 33 | 1008.8 |
| 20260503192958 | 68 | 312 | 3.0 | 5.0 | 0.00 | 0.00 | 0.00 | 34 | 1008.8 |
| 20260503192454 | 68 | 334 | 8.0 | 9.0 | 0.00 | 0.00 | 0.00 | 34 | 1008.8 |
| 20260503191950 | 68 | 342 | 11.0 | 11.0 | 0.00 | 0.00 | 0.00 | 34 | 1008.8 |
| 20260503191448 | 67 | 323 | 7.0 | 9.0 | 0.00 | 0.00 | 0.00 | 37 | 1009.2 |
| 20260503190944 | 67 | 334 | 13.0 | 15.0 | 0.00 | 0.00 | 0.00 | 33 | 1009.2 |
| 20260503190442 | 67 | 326 | 8.0 | 9.0 | 0.00 | 0.00 | 0.00 | 34 | 1009.2 |
| 20260503185938 | 67 | 329 | 6.0 | 7.0 | 0.00 | 0.00 | 0.00 | 34 | 1009.2 |
| 20260503185435 | 67 | 314 | 13.0 | 15.0 | 0.00 | 0.00 | 0.00 | 34 | 1009.2 |
| 20260503184934 | 67 | 346 | 12.0 | 14.0 | 0.00 | 0.00 | 0.00 | 34 | 1009.2 |
| 20260503184431 | 67 | 333 | 9.0 | 11.0 | 0.00 | 0.00 | 0.00 | 35 | 1009.2 |
| 20260503183927 | 66 | 308 | 8.0 | 13.0 | 0.00 | 0.00 | 0.00 | 36 | 1009.2 |
| 20260503183424 | 66 | 321 | 10.0 | 13.0 | 0.00 | 0.00 | 0.00 | 36 | 1009.5 |
| 20260503182921 | 66 | 337 | 12.0 | 14.0 | 0.00 | 0.00 | 0.00 | 35 | 1009.5 |
| 20260503182420 | 66 | 305 | 7.0 | 9.0 | 0.00 | 0.00 | 0.00 | 35 | 1009.5 |
| 20260503181917 | 66 | 300 | 7.0 | 9.0 | 0.00 | 0.00 | 0.00 | 35 | 1009.5 |
| 20260503181414 | 65 | 324 | 12.0 | 16.0 | 0.00 | 0.00 | 0.00 | 38 | 1009.5 |
| 20260503180910 | 66 | 305 | 11.0 | 21.0 | 0.00 | 0.00 | 0.00 | 37 | 1009.8 |
| 20260503180408 | 66 | 309 | 12.0 | 14.0 | 0.00 | 0.00 | 0.00 | 35 | 1009.8 |
| 20260503175904 | 66 | 344 | 15.0 | 20.0 | 0.00 | 0.00 | 0.00 | 37 | 1009.8 |
| 20260503175403 | 65 | 329 | 13.0 | 15.0 | 0.00 | 0.00 | 0.00 | 38 | 1009.8 |
| 20260503174858 | 65 | 312 | 17.0 | 21.0 | 0.00 | 0.00 | 0.00 | 36 | 1010.2 |
| 20260503174356 | 65 | 337 | 12.0 | 15.0 | 0.00 | 0.00 | 0.00 | 38 | 1010.2 |
| 20260503173851 | 65 | 329 | 17.0 | 21.0 | 0.00 | 0.00 | 0.00 | 36 | 1010.2 |
| 20260503173348 | 65 | 353 | 16.0 | 18.0 | 0.00 | 0.00 | 0.00 | 38 | 1010.2 |
| 20260503172844 | 65 | 321 | 13.0 | 16.0 | 0.00 | 0.00 | 0.00 | 39 | 1010.2 |
| 20260503172342 | 65 | 328 | 13.0 | 16.0 | 0.00 | 0.00 | 0.00 | 40 | 1010.2 |
| 20260503171838 | 64 | 310 | 9.0 | 9.0 | 0.00 | 0.00 | 0.00 | 42 | 1010.2 |
| 20260503171335 | 64 | 318 | 11.0 | 13.0 | 0.00 | 0.00 | 0.00 | 41 | 1010.5 |
| 20260503170832 | 64 | 358 | 14.0 | 16.0 | 0.00 | 0.00 | 0.00 | 43 | 1010.5 |
| 20260503170328 | 63 | 333 | 8.0 | 9.0 | 0.00 | 0.00 | 0.00 | 45 | 1010.5 |
| 20260503150721 | 59 | 311 | 14.0 | 16.0 | 0.00 | 0.00 | 0.00 | 52 | 1010.5 |
| 20260503150217 | 58 | 348 | 10.0 | 13.0 | 0.00 | 0.00 | 0.00 | 54 | 1010.5 |
| 20260503140141 | 54 | 336 | 13.0 | 17.0 | 0.00 | 0.00 | 0.00 | 62 | 1010.2 |